SAS812 ENGM-UMOO

Flight info

Callsign SAS812
Flight time 1h 48m
Altitude 39000
Route KSD DCT VEN/K0813F390 DCT GLB DCT MGL
Aircraft A20N/M-SDE2E3FGHIJ1RWXY/LB1

Departure

Time 2026-05-07 18:04
Airport Oslo-Gardermoen International Airport (ENGM)

Arrival

Time 2026-05-07 19:53
Airport Mogilev Airport (UMOO)
Time Latitude Longitude Altitude Speed Heading
2026-05-07 17:20 60.19321 11.10418 688 ft 0 kts 15°
2026-05-07 17:52 60.19315 11.10415 688 ft 2 kts 15°
2026-05-07 17:52 60.19301 11.10407 688 ft 2 kts 15°
2026-05-07 17:52 60.19287 11.10395 688 ft 2 kts 44°
2026-05-07 17:53 60.19278 11.10370 688 ft 2 kts 73°
2026-05-07 17:53 60.19277 11.10342 688 ft 0 kts 101°
2026-05-07 17:53 60.19278 11.10336 688 ft 1 kts 105°
2026-05-07 17:53 60.19270 11.10398 688 ft 5 kts 105°
2026-05-07 17:54 60.19264 11.10442 688 ft 0 kts 105°
2026-05-07 17:54 60.19263 11.10443 688 ft 0 kts 105°
2026-05-07 17:56 60.19263 11.10444 688 ft 0 kts 105°
2026-05-07 17:56 60.19259 11.10472 688 ft 4 kts 107°
2026-05-07 17:56 60.19246 11.10559 688 ft 7 kts 107°
2026-05-07 17:57 60.19228 11.10685 688 ft 10 kts 105°
2026-05-07 17:57 60.19213 11.10788 688 ft 12 kts 106°
2026-05-07 17:57 60.19178 11.11033 688 ft 13 kts 105°
2026-05-07 17:57 60.19197 11.11151 688 ft 8 kts 25°
2026-05-07 17:58 60.19215 11.11161 688 ft 1 kts 16°
2026-05-07 17:58 60.19256 11.11185 688 ft 8 kts 16°
2026-05-07 17:58 60.19317 11.11222 688 ft 10 kts 15°
2026-05-07 17:58 60.19391 11.11262 688 ft 11 kts 16°
2026-05-07 17:59 60.19473 11.11309 688 ft 12 kts 17°
2026-05-07 17:59 60.19562 11.11364 688 ft 13 kts 15°
2026-05-07 17:59 60.19655 11.11417 688 ft 10 kts 16°
2026-05-07 17:59 60.19666 11.11424 688 ft 0 kts 16°
2026-05-07 18:00 60.19668 11.11425 688 ft 1 kts 16°
2026-05-07 18:00 60.19682 11.11433 688 ft 2 kts 17°
2026-05-07 18:00 60.19721 11.11456 688 ft 10 kts 16°
2026-05-07 18:00 60.19813 11.11507 688 ft 16 kts 15°
2026-05-07 18:01 60.19925 11.11571 688 ft 16 kts 15°
2026-05-07 18:01 60.20028 11.11631 688 ft 15 kts 16°
2026-05-07 18:01 60.20087 11.11739 688 ft 11 kts 90°
2026-05-07 18:01 60.20068 11.11890 688 ft 9 kts 105°
2026-05-07 18:02 60.20045 11.12053 688 ft 8 kts 105°
2026-05-07 18:02 60.20022 11.12173 688 ft 6 kts 136°
2026-05-07 18:02 60.19996 11.12177 688 ft 0 kts 195°
2026-05-07 18:03 60.19987 11.12172 688 ft 6 kts 195°
2026-05-07 18:04 60.19698 11.12007 688 ft 80 kts 195°
2026-05-07 18:04 60.18947 11.11573 688 ft 142 kts 196°
2026-05-07 18:04 60.17853 11.10924 875 ft 175 kts 196°
2026-05-07 18:04 60.16694 11.10219 1547 ft 175 kts 194°
2026-05-07 18:05 60.15497 11.09561 2139 ft 186 kts 194°
2026-05-07 18:05 60.14192 11.08953 2624 ft 202 kts 184°
2026-05-07 18:05 60.12778 11.09574 3010 ft 224 kts 148°
2026-05-07 18:05 60.11604 11.11793 3522 ft 243 kts 131°
2026-05-07 18:06 60.10445 11.14386 4120 ft 260 kts 133°
2026-05-07 18:06 60.09202 11.17070 4955 ft 266 kts 131°
2026-05-07 18:06 60.08255 11.20247 5842 ft 271 kts 103°
2026-05-07 18:06 60.08248 11.23974 6728 ft 273 kts 80°
2026-05-07 18:07 60.08625 11.27682 7564 ft 278 kts 77°
2026-05-07 18:07 60.09037 11.31470 8399 ft 283 kts 77°
2026-05-07 18:07 60.09423 11.35379 9215 ft 288 kts 78°
2026-05-07 18:07 60.09772 11.39295 10031 ft 292 kts 79°
2026-05-07 18:08 60.10107 11.43356 10722 ft 301 kts 80°
2026-05-07 18:08 60.10439 11.47601 11198 ft 317 kts 80°
2026-05-07 18:08 60.10768 11.51966 12139 ft 315 kts 80°
2026-05-07 18:08 60.11083 11.56227 13213 ft 310 kts 81°
2026-05-07 18:09 60.11395 11.60507 13943 ft 313 kts 80°
2026-05-07 18:09 60.11708 11.64839 14650 ft 319 kts 80°
2026-05-07 18:09 60.12022 11.69225 15368 ft 324 kts 81°
2026-05-07 18:09 60.12347 11.73762 16003 ft 330 kts 81°
2026-05-07 18:10 60.12671 11.78338 16696 ft 335 kts 81°
2026-05-07 18:10 60.12994 11.82923 17318 ft 340 kts 80°
2026-05-07 18:10 60.13326 11.87655 17937 ft 345 kts 80°
2026-05-07 18:10 60.13662 11.92429 18513 ft 350 kts 81°
2026-05-07 18:11 60.13999 11.97268 19136 ft 355 kts 80°
2026-05-07 18:11 60.14225 12.00544 19531 ft 358 kts 80°
2026-05-07 18:11 60.14684 12.07216 20292 ft 365 kts 80°
2026-05-07 18:11 60.15027 12.12231 20872 ft 370 kts 80°
2026-05-07 18:12 60.15376 12.17386 21426 ft 374 kts 79°
2026-05-07 18:12 60.15725 12.22538 22014 ft 378 kts 79°
2026-05-07 18:12 60.16078 12.27798 22521 ft 382 kts 79°
2026-05-07 18:12 60.16432 12.33105 23071 ft 386 kts 79°
2026-05-07 18:13 60.16785 12.38445 23530 ft 391 kts 79°
2026-05-07 18:13 60.17143 12.43862 24101 ft 394 kts 79°
2026-05-07 18:13 60.17479 12.49286 24580 ft 398 kts 82°
2026-05-07 18:13 60.17594 12.54837 25070 ft 404 kts 89°
2026-05-07 18:14 60.17397 12.60518 25585 ft 408 kts 94°
2026-05-07 18:14 60.17049 12.66174 26109 ft 412 kts 96°
2026-05-07 18:14 60.16663 12.71904 26522 ft 417 kts 97°
2026-05-07 18:14 60.16276 12.77647 26954 ft 420 kts 96°
2026-05-07 18:15 60.15892 12.83422 27406 ft 423 kts 96°
2026-05-07 18:15 60.15502 12.89349 27773 ft 427 kts 96°
2026-05-07 18:15 60.15119 12.95205 28182 ft 429 kts 96°
2026-05-07 18:15 60.14726 13.01189 28613 ft 432 kts 96°
2026-05-07 18:16 60.14333 13.07163 28992 ft 436 kts 96°
2026-05-07 18:16 60.13938 13.13146 29368 ft 439 kts 96°
2026-05-07 18:16 60.13532 13.19256 29674 ft 443 kts 95°
2026-05-07 18:16 60.13119 13.25399 30091 ft 446 kts 95°
2026-05-07 18:17 60.12709 13.31494 30466 ft 448 kts 96°
2026-05-07 18:17 60.12285 13.37702 30808 ft 452 kts 95°
2026-05-07 18:17 60.11855 13.43984 31134 ft 454 kts 96°
2026-05-07 18:17 60.11423 13.50269 31473 ft 456 kts 96°
2026-05-07 18:18 60.10989 13.56507 31818 ft 459 kts 95°
2026-05-07 18:18 60.10543 13.62854 32112 ft 461 kts 95°
2026-05-07 18:18 60.10095 13.69240 32436 ft 463 kts 96°
2026-05-07 18:18 60.09637 13.75680 32710 ft 466 kts 96°
2026-05-07 18:19 60.09177 13.82128 32983 ft 468 kts 96°
2026-05-07 18:19 60.08712 13.88592 33264 ft 470 kts 96°
2026-05-07 18:19 60.08247 13.95016 33528 ft 471 kts 96°
2026-05-07 18:19 60.07773 14.01512 33800 ft 473 kts 96°
2026-05-07 18:20 60.07294 14.08025 34076 ft 474 kts 96°
2026-05-07 18:20 60.06809 14.14555 34296 ft 476 kts 96°
2026-05-07 18:20 60.06318 14.21147 34476 ft 479 kts 96°
2026-05-07 18:20 60.05818 14.27741 34705 ft 481 kts 97°
2026-05-07 18:21 60.05164 14.34250 34878 ft 484 kts 102°
2026-05-07 18:21 60.04264 14.40733 35036 ft 485 kts 107°
2026-05-07 18:21 60.03107 14.47108 35263 ft 485 kts 112°
2026-05-07 18:22 60.00103 14.59107 35485 ft 483 kts 121°
2026-05-07 18:22 59.98950 14.62953 35589 ft 483 kts 122°
2026-05-07 18:22 59.96652 14.70519 36049 ft 483 kts 124°
2026-05-07 18:22 59.94906 14.76246 36231 ft 483 kts 123°
2026-05-07 18:23 59.93159 14.81992 36392 ft 483 kts 123°
2026-05-07 18:23 59.91423 14.87715 36573 ft 483 kts 123°
2026-05-07 18:23 59.89710 14.93367 36539 ft 481 kts 123°
2026-05-07 18:23 59.87976 14.99079 36930 ft 480 kts 124°
2026-05-07 18:24 59.86247 15.04774 36905 ft 480 kts 124°
2026-05-07 18:24 59.84522 15.10433 37064 ft 480 kts 124°
2026-05-07 18:24 59.82791 15.16098 37426 ft 479 kts 124°
2026-05-07 18:25 59.79342 15.27354 37718 ft 476 kts 124°
2026-05-07 18:25 59.77630 15.32923 38028 ft 474 kts 124°
2026-05-07 18:25 59.75933 15.38428 38198 ft 473 kts 124°
2026-05-07 18:26 59.72507 15.49500 38521 ft 471 kts 124°
2026-05-07 18:26 59.70803 15.54987 38687 ft 469 kts 124°
2026-05-07 18:26 59.69102 15.60455 38848 ft 467 kts 124°
2026-05-07 18:26 59.67384 15.65960 39039 ft 466 kts 125°
2026-05-07 18:27 59.65682 15.71404 39123 ft 466 kts 125°
2026-05-07 18:27 59.62289 15.82214 39103 ft 465 kts 125°
2026-05-07 18:28 59.58862 15.93078 39100 ft 465 kts 125°
2026-05-07 18:28 59.55452 16.03843 39134 ft 465 kts 125°
2026-05-07 18:29 59.52022 16.14621 39128 ft 465 kts 125°
2026-05-07 18:29 59.48576 16.25408 39063 ft 466 kts 125°
2026-05-07 18:30 59.45129 16.36148 39100 ft 466 kts 125°
2026-05-07 18:30 59.41660 16.46896 39139 ft 467 kts 125°
2026-05-07 18:31 59.38202 16.57573 39127 ft 466 kts 125°
2026-05-07 18:31 59.34710 16.68299 39070 ft 467 kts 126°
2026-05-07 18:32 59.31224 16.78949 39091 ft 468 kts 126°
2026-05-07 18:32 59.27710 16.89639 39094 ft 468 kts 126°
2026-05-07 18:33 59.24173 17.00364 39084 ft 469 kts 126°
2026-05-07 18:33 59.20661 17.10952 39101 ft 468 kts 126°
2026-05-07 18:34 59.17118 17.21593 39107 ft 468 kts 126°
2026-05-07 18:34 59.13574 17.32187 39119 ft 467 kts 126°
2026-05-07 18:35 59.10035 17.42722 39116 ft 468 kts 126°
2026-05-07 18:35 59.06458 17.53315 39128 ft 467 kts 126°
2026-05-07 18:36 59.02918 17.63752 39130 ft 465 kts 126°
2026-05-07 18:36 58.99356 17.74213 39118 ft 464 kts 127°
2026-05-07 18:37 58.95790 17.84635 39149 ft 463 kts 127°
2026-05-07 18:37 58.92244 17.94959 39125 ft 462 kts 127°
2026-05-07 18:38 58.88667 18.05325 39129 ft 461 kts 127°
2026-05-07 18:38 58.85117 18.15569 39121 ft 461 kts 127°
2026-05-07 18:39 58.81532 18.25859 39103 ft 462 kts 127°
2026-05-07 18:39 58.77959 18.36077 39115 ft 462 kts 127°
2026-05-07 18:40 58.74357 18.46337 39112 ft 463 kts 127°
2026-05-07 18:40 58.70762 18.56527 39125 ft 463 kts 127°
2026-05-07 18:41 58.67142 18.66752 39137 ft 463 kts 128°
2026-05-07 18:41 58.63544 18.76864 39116 ft 462 kts 128°
2026-05-07 18:42 58.59919 18.87009 39115 ft 461 kts 128°
2026-05-07 18:42 58.56280 18.97157 39146 ft 461 kts 128°
2026-05-07 18:43 58.52652 19.07226 39177 ft 462 kts 128°
2026-05-07 18:43 58.49005 19.17308 39139 ft 461 kts 128°
2026-05-07 18:44 58.45361 19.27333 39129 ft 461 kts 128°
2026-05-07 18:44 58.41721 19.37314 39151 ft 460 kts 128°
2026-05-07 18:45 58.38067 19.47281 39142 ft 460 kts 128°
2026-05-07 18:45 58.34398 19.57253 39165 ft 460 kts 128°
2026-05-07 18:46 58.30740 19.67152 39125 ft 459 kts 129°
2026-05-07 18:46 58.27066 19.77053 39138 ft 459 kts 129°
2026-05-07 18:47 58.23390 19.86921 39095 ft 458 kts 129°
2026-05-07 18:47 58.19702 19.96778 39091 ft 459 kts 129°
2026-05-07 18:48 58.16013 20.06609 39120 ft 458 kts 129°
2026-05-07 18:48 58.12323 20.16386 39124 ft 458 kts 129°
2026-05-07 18:49 58.08621 20.26162 39114 ft 458 kts 129°
2026-05-07 18:49 58.04877 20.35855 39106 ft 456 kts 132°
2026-05-07 18:50 58.00731 20.44690 39116 ft 452 kts 139°
2026-05-07 18:50 57.96101 20.52614 39094 ft 449 kts 143°
2026-05-07 18:51 57.91412 20.60373 39120 ft 449 kts 142°
2026-05-07 18:51 57.86751 20.68083 39089 ft 448 kts 143°
2026-05-07 18:52 57.82078 20.75784 39117 ft 449 kts 143°
2026-05-07 18:52 57.77413 20.83448 39119 ft 448 kts 143°
2026-05-07 18:53 57.72728 20.91119 39109 ft 446 kts 143°
2026-05-07 18:53 57.68064 20.98727 39096 ft 447 kts 143°
2026-05-07 18:54 57.63385 21.06335 39092 ft 446 kts 143°
2026-05-07 18:54 57.58746 21.13848 39115 ft 446 kts 143°
2026-05-07 18:55 57.54056 21.21422 39088 ft 446 kts 143°
2026-05-07 18:55 57.49374 21.28955 39088 ft 445 kts 143°
2026-05-07 18:56 57.44716 21.36425 39099 ft 446 kts 143°
2026-05-07 18:56 57.40061 21.43914 39107 ft 445 kts 141°
2026-05-07 18:57 57.35722 21.52104 39060 ft 449 kts 135°
2026-05-07 18:57 57.31872 21.61303 39104 ft 454 kts 128°
2026-05-07 18:58 57.28596 21.71209 39086 ft 455 kts 124°
2026-05-07 18:58 57.25423 21.81292 39108 ft 456 kts 124°
2026-05-07 18:59 57.22223 21.91384 39099 ft 455 kts 124°
2026-05-07 18:59 57.19028 22.01403 39072 ft 454 kts 124°
2026-05-07 19:00 57.15820 22.11411 39072 ft 454 kts 125°
2026-05-07 19:00 57.12624 22.21335 39059 ft 454 kts 124°
2026-05-07 19:01 57.09401 22.31298 39035 ft 454 kts 124°
2026-05-07 19:01 57.06168 22.41253 39084 ft 455 kts 124°
2026-05-07 19:02 57.02928 22.51190 39063 ft 454 kts 124°
2026-05-07 19:02 56.99703 22.61037 39072 ft 453 kts 124°
2026-05-07 19:03 56.96437 22.70974 39061 ft 453 kts 126°
2026-05-07 19:03 56.93197 22.80795 39087 ft 452 kts 126°
2026-05-07 19:04 56.89940 22.90621 39050 ft 452 kts 126°
2026-05-07 19:04 56.86687 23.00384 39093 ft 453 kts 126°
2026-05-07 19:05 56.83420 23.10157 39030 ft 452 kts 126°
2026-05-07 19:05 56.80123 23.19978 39069 ft 453 kts 126°
2026-05-07 19:06 56.76837 23.29732 39048 ft 452 kts 126°
2026-05-07 19:06 56.71904 23.44298 39076 ft 452 kts 126°
2026-05-07 19:07 56.68613 23.53963 39037 ft 453 kts 126°
2026-05-07 19:07 56.65296 23.63671 39085 ft 452 kts 126°
2026-05-07 19:08 56.61981 23.73331 39070 ft 453 kts 127°
2026-05-07 19:08 56.58666 23.82952 39114 ft 451 kts 127°
2026-05-07 19:09 56.55342 23.92563 39077 ft 451 kts 127°
2026-05-07 19:09 56.51997 24.02191 39092 ft 452 kts 127°
2026-05-07 19:10 56.48666 24.11745 39054 ft 450 kts 127°
2026-05-07 19:10 56.45339 24.21246 39049 ft 450 kts 127°
2026-05-07 19:11 56.41976 24.30816 39032 ft 450 kts 127°
2026-05-07 19:11 56.38628 24.40304 39086 ft 450 kts 127°
2026-05-07 19:12 56.35253 24.49832 39093 ft 451 kts 127°
2026-05-07 19:12 56.31888 24.59293 39059 ft 451 kts 128°
2026-05-07 19:13 56.28497 24.68794 39036 ft 450 kts 128°
2026-05-07 19:13 56.25107 24.78256 39045 ft 450 kts 128°
2026-05-07 19:14 56.21722 24.87663 39047 ft 450 kts 129°
2026-05-07 19:14 56.18348 24.97009 38993 ft 447 kts 129°
2026-05-07 19:15 56.14963 25.06338 39016 ft 449 kts 129°
2026-05-07 19:15 56.11549 25.15715 39069 ft 448 kts 129°
2026-05-07 19:16 56.08153 25.25013 39063 ft 447 kts 129°
2026-05-07 19:16 56.04756 25.34268 38987 ft 447 kts 129°
2026-05-07 19:17 56.01326 25.43585 39040 ft 449 kts 129°
2026-05-07 19:17 55.97893 25.52872 39074 ft 448 kts 129°
2026-05-07 19:18 55.94495 25.62043 39015 ft 446 kts 129°
2026-05-07 19:18 55.91065 25.71248 38997 ft 447 kts 130°
2026-05-07 19:19 55.87629 25.80442 38994 ft 444 kts 130°
2026-05-07 19:19 55.84227 25.89512 39069 ft 444 kts 130°
2026-05-07 19:20 55.80782 25.98655 38940 ft 445 kts 130°
2026-05-07 19:20 55.79070 26.03184 39052 ft 446 kts 130°
2026-05-07 19:20 55.77351 26.07727 39007 ft 446 kts 130°
2026-05-07 19:21 55.73899 26.16830 38993 ft 444 kts 130°
2026-05-07 19:21 55.70444 26.25905 39038 ft 443 kts 130°
2026-05-07 19:22 55.66994 26.34928 39048 ft 442 kts 130°
2026-05-07 19:22 55.63568 26.43862 39012 ft 440 kts 130°
2026-05-07 19:23 55.60148 26.52740 38934 ft 439 kts 130°
2026-05-07 19:23 55.56726 26.61594 38959 ft 439 kts 130°
2026-05-07 19:24 55.53274 26.70497 38993 ft 439 kts 131°
2026-05-07 19:24 55.49832 26.79338 38812 ft 439 kts 131°
2026-05-07 19:25 55.48096 26.83789 38417 ft 437 kts 131°
2026-05-07 19:25 55.46395 26.88142 37962 ft 435 kts 131°
2026-05-07 19:25 55.44680 26.92528 37370 ft 435 kts 131°
2026-05-07 19:25 55.42981 26.96861 36786 ft 434 kts 131°
2026-05-07 19:26 55.41264 27.01230 36269 ft 433 kts 131°
2026-05-07 19:26 55.39548 27.05583 35718 ft 434 kts 132°
2026-05-07 19:26 55.37835 27.09924 35154 ft 436 kts 132°
2026-05-07 19:26 55.36113 27.14284 34692 ft 433 kts 132°
2026-05-07 19:27 55.34430 27.18540 34218 ft 430 kts 132°
2026-05-07 19:27 55.32727 27.22839 33763 ft 425 kts 132°
2026-05-07 19:27 55.31044 27.27077 33332 ft 421 kts 132°
2026-05-07 19:27 55.29386 27.31244 32979 ft 416 kts 132°
2026-05-07 19:28 55.27747 27.35357 32536 ft 413 kts 132°
2026-05-07 19:28 55.26115 27.39451 32137 ft 410 kts 132°
2026-05-07 19:28 55.24485 27.43524 31687 ft 407 kts 132°
2026-05-07 19:28 55.22881 27.47527 31293 ft 403 kts 132°
2026-05-07 19:29 55.21280 27.51522 30892 ft 400 kts 132°
2026-05-07 19:29 55.19682 27.55495 30381 ft 399 kts 132°
2026-05-07 19:29 55.18108 27.59395 29942 ft 396 kts 132°
2026-05-07 19:29 55.16532 27.63307 29586 ft 392 kts 131°
2026-05-07 19:30 55.14948 27.67150 29242 ft 387 kts 135°
2026-05-07 19:30 55.13287 27.70797 28851 ft 385 kts 136°
2026-05-07 19:30 55.11611 27.74410 28418 ft 382 kts 136°
2026-05-07 19:30 55.09952 27.77980 27986 ft 379 kts 136°
2026-05-07 19:31 55.08295 27.81541 27545 ft 377 kts 136°
2026-05-07 19:31 55.06653 27.85070 27109 ft 375 kts 136°
2026-05-07 19:31 55.05005 27.88606 26698 ft 372 kts 136°
2026-05-07 19:31 55.03399 27.92048 26276 ft 370 kts 136°
2026-05-07 19:32 55.01765 27.95545 25869 ft 367 kts 136°
2026-05-07 19:32 55.00182 27.98929 25484 ft 365 kts 135°
2026-05-07 19:32 54.98582 28.02345 25091 ft 362 kts 135°
2026-05-07 19:32 54.96983 28.05752 24681 ft 361 kts 135°
2026-05-07 19:33 54.95403 28.09115 24275 ft 359 kts 135°
2026-05-07 19:33 54.93847 28.12422 23871 ft 358 kts 135°
2026-05-07 19:33 54.92273 28.15764 23455 ft 357 kts 135°
2026-05-07 19:33 54.90701 28.19098 23057 ft 356 kts 135°
2026-05-07 19:34 54.89144 28.22392 22654 ft 356 kts 135°
2026-05-07 19:34 54.87574 28.25708 22236 ft 356 kts 135°
2026-05-07 19:34 54.85997 28.29033 21804 ft 356 kts 134°
2026-05-07 19:34 54.84449 28.32299 21397 ft 356 kts 134°
2026-05-07 19:35 54.82880 28.35608 20977 ft 355 kts 135°
2026-05-07 19:35 54.81311 28.38909 20547 ft 354 kts 134°
2026-05-07 19:35 54.79747 28.42193 20158 ft 353 kts 134°
2026-05-07 19:35 54.78189 28.45461 19766 ft 352 kts 134°
2026-05-07 19:36 54.76633 28.48721 19356 ft 351 kts 134°
2026-05-07 19:36 54.75086 28.51962 18957 ft 350 kts 134°
2026-05-07 19:36 54.73547 28.55179 18552 ft 349 kts 134°
2026-05-07 19:36 54.72004 28.58395 18153 ft 348 kts 134°
2026-05-07 19:37 54.70466 28.61600 17769 ft 346 kts 134°
2026-05-07 19:37 54.68942 28.64771 17391 ft 345 kts 134°
2026-05-07 19:37 54.67416 28.67946 17013 ft 343 kts 135°
2026-05-07 19:37 54.65897 28.71098 16616 ft 341 kts 135°
2026-05-07 19:38 54.64386 28.74226 16239 ft 339 kts 135°
2026-05-07 19:38 54.62890 28.77327 15879 ft 337 kts 135°
2026-05-07 19:38 54.61390 28.80429 15492 ft 335 kts 135°
2026-05-07 19:38 54.59919 28.83465 15123 ft 333 kts 134°
2026-05-07 19:39 54.58433 28.86531 14762 ft 331 kts 134°
2026-05-07 19:39 54.56976 28.89533 14401 ft 328 kts 134°
2026-05-07 19:39 54.55515 28.92540 14030 ft 326 kts 134°
2026-05-07 19:39 54.54544 28.94531 13789 ft 325 kts 134°
2026-05-07 19:40 54.52627 28.98466 13298 ft 322 kts 134°
2026-05-07 19:40 54.51187 29.01416 12931 ft 321 kts 134°
2026-05-07 19:40 54.49755 29.04346 12571 ft 319 kts 134°
2026-05-07 19:40 54.48334 29.07252 12210 ft 317 kts 134°
2026-05-07 19:41 54.46938 29.10105 11846 ft 315 kts 134°
2026-05-07 19:41 54.45530 29.12979 11480 ft 314 kts 134°
2026-05-07 19:41 54.44122 29.15846 11106 ft 313 kts 134°
2026-05-07 19:41 54.42720 29.18698 10744 ft 312 kts 134°
2026-05-07 19:42 54.41337 29.21512 10373 ft 310 kts 134°
2026-05-07 19:42 54.39952 29.24326 10028 ft 306 kts 134°
2026-05-07 19:42 54.38594 29.27080 9697 ft 303 kts 134°
2026-05-07 19:42 54.37234 29.29839 9348 ft 301 kts 134°
2026-05-07 19:43 54.35883 29.32573 9006 ft 298 kts 134°
2026-05-07 19:43 54.34561 29.35242 8662 ft 296 kts 133°
2026-05-07 19:43 54.33234 29.37919 8325 ft 294 kts 133°
2026-05-07 19:43 54.31922 29.40564 7981 ft 292 kts 133°
2026-05-07 19:44 54.30615 29.43201 7645 ft 289 kts 133°
2026-05-07 19:44 54.29321 29.45808 7311 ft 287 kts 133°
2026-05-07 19:44 54.28038 29.48390 6980 ft 285 kts 133°
2026-05-07 19:44 54.26760 29.50958 6644 ft 283 kts 133°
2026-05-07 19:45 54.25479 29.53531 6308 ft 282 kts 133°
2026-05-07 19:45 54.24207 29.56081 5985 ft 280 kts 133°
2026-05-07 19:45 54.22954 29.58582 5663 ft 278 kts 132°
2026-05-07 19:45 54.21708 29.61075 5339 ft 277 kts 132°
2026-05-07 19:46 54.20455 29.63584 5017 ft 275 kts 132°
2026-05-07 19:46 54.19222 29.66044 4701 ft 273 kts 133°
2026-05-07 19:46 54.17995 29.68494 4383 ft 271 kts 133°
2026-05-07 19:46 54.16769 29.70947 4072 ft 268 kts 133°
2026-05-07 19:47 54.15564 29.73338 3793 ft 265 kts 133°
2026-05-07 19:47 54.14387 29.75678 3754 ft 253 kts 133°
2026-05-07 19:47 54.13281 29.77880 3737 ft 238 kts 133°
2026-05-07 19:47 54.12226 29.79982 3720 ft 227 kts 133°
2026-05-07 19:48 54.11236 29.81956 3678 ft 215 kts 133°
2026-05-07 19:48 54.10267 29.83883 3579 ft 211 kts 129°
2026-05-07 19:48 54.09500 29.85926 3555 ft 198 kts 124°
2026-05-07 19:48 54.08740 29.87782 3420 ft 186 kts 130°
2026-05-07 19:49 54.07898 29.89431 3175 ft 181 kts 135°
2026-05-07 19:49 54.07043 29.90958 2986 ft 174 kts 137°
2026-05-07 19:49 54.06209 29.92364 2818 ft 165 kts 140°
2026-05-07 19:49 54.05405 29.93669 2679 ft 159 kts 141°
2026-05-07 19:50 54.04601 29.94951 2633 ft 158 kts 142°
2026-05-07 19:50 54.03791 29.96239 2576 ft 159 kts 141°
2026-05-07 19:50 54.02985 29.97523 2381 ft 158 kts 141°
2026-05-07 19:50 54.02190 29.98796 2168 ft 156 kts 142°
2026-05-07 19:51 54.01393 30.00072 1958 ft 155 kts 141°
2026-05-07 19:51 54.00615 30.01320 1757 ft 155 kts 143°
2026-05-07 19:51 53.99847 30.02556 1565 ft 150 kts 145°
2026-05-07 19:51 53.99083 30.03774 1358 ft 148 kts 143°
2026-05-07 19:52 53.98333 30.04971 1161 ft 148 kts 142°
2026-05-07 19:52 53.97586 30.06166 963 ft 149 kts 142°
2026-05-07 19:52 53.96830 30.07393 779 ft 151 kts 140°
2026-05-07 19:52 53.96051 30.08604 625 ft 147 kts 139°
2026-05-07 19:53 53.95624 30.09290 629 ft 16 kts 131°
2026-05-07 19:53 53.95612 30.09321 629 ft 1 kts 111°
2026-05-07 19:53 53.95610 30.09349 629 ft 3 kts 84°
2026-05-07 19:53 53.95622 30.09397 628 ft 5 kts 57°
2026-05-07 19:54 53.95639 30.09433 627 ft 1 kts 47°
2026-05-07 19:54 53.95641 30.09437 627 ft 2 kts 47°
2026-05-07 19:54 53.95652 30.09456 627 ft 0 kts 45°
2026-05-07 19:55 53.95658 30.09467 626 ft 4 kts 45°
2026-05-07 19:55 53.95688 30.09522 625 ft 5 kts 47°
2026-05-07 19:55 53.95714 30.09566 625 ft 5 kts 44°
2026-05-07 19:56 53.95755 30.09595 625 ft 7 kts
2026-05-07 19:56 53.95806 30.09599 625 ft 7 kts
2026-05-07 19:56 53.95863 30.09603 625 ft 8 kts
2026-05-07 19:56 53.95895 30.09575 625 ft 4 kts 288°
2026-05-07 19:57 53.95882 30.09526 625 ft 4 kts 227°
2026-05-07 19:57 53.95880 30.09523 625 ft 0 kts 226°